[[{"header":{"parameterUnit":"m.s-1","parameterCategory":1,"la1":30.2991,"la2":30.254,"lo1":-89.0895,"lo2":-89.0444,"dy":0.0017,"dx":0.0017,"nx":28,"ny":28,"refTime":"2023-08-28T09:00:00:Z","depth":0,"parameterNumber":2,"parameterNumberName":"U-component_of_WINDS"},"data":[0,0,0,0,0,0,0,0,0,0,0,0,0,0,0,0,0,0,0,0,0,0,0,0,0,0,0,0,0,0,0,0,0,0,0,0,0,0,0,0,0,0,0,0,0,0,0,0,0,0,0,0,0,0,0,0,0,0,1.4974,1.4976,0,1.508,1.5081,1.5082,1.514,1.514,1.5141,1.5141,1.5245,1.5247,1.525,0,0,0,0,0,0,0,0,0,0,0,0,0,1.482,1.4823,1.4974,1.4976,1.4977,1.5079,1.5081,1.5082,1.514,1.514,1.5141,1.5141,1.5244,1.5247,1.525,0,0,0,0,0,0,0,0,0,0,0,0,0,1.4902,1.4824,1.4974,1.5018,1.5023,1.5079,1.5081,1.5083,1.514,1.514,1.5141,1.5141,1.5243,1.5246,1.525,1.5269,0,0,1.5262,1.5264,0,0,0,0,0,0,0,0,1.4898,1.4908,1.5011,1.5015,1.5021,1.5097,1.5065,1.5145,1.514,1.5096,1.5141,1.5141,1.5195,1.5203,1.5222,1.5274,1.5278,1.5263,1.5265,1.5267,1.5268,0,0,0,0,0,0,0,1.4892,1.4904,1.5016,1.5012,1.5018,1.5032,1.5044,1.508,1.5142,1.51,1.5104,1.5116,1.5198,1.5218,1.5225,1.528,1.5262,1.5266,1.5268,1.527,1.5353,1.5353,0,0,0,0,0,0,1.488,1.4899,1.5013,1.5019,1.4959,1.5034,1.5048,1.5072,1.5142,1.5153,1.5116,1.5118,1.5211,1.522,1.5229,1.5255,1.5267,1.527,1.5272,1.5353,1.5353,1.5353,0,0,0,0,0,0,1.4876,1.4889,1.5008,1.496,1.4976,1.5037,1.5064,1.5074,1.5094,1.5154,1.5165,1.5125,1.5212,1.5223,1.5259,1.526,1.5272,1.5276,1.5353,1.5353,1.5353,1.5309,0,0,0,0,0,0,1.4871,1.4888,1.4896,1.496,1.4979,1.5038,1.5064,1.5076,1.5101,1.5106,1.5166,1.5176,1.5213,1.5253,1.5263,1.5265,1.5279,1.5353,1.5353,1.5353,1.531,1.5307,1.5304,0,0,0,0,0,1.4866,1.4879,1.4896,1.491,1.4991,1.5038,1.5048,1.5091,1.5101,1.511,1.5148,1.5174,1.5258,1.5256,1.5268,1.5271,1.5353,1.5353,1.5353,1.5312,1.5308,1.5304,0,0,0,0,0,0,1.4812,1.4888,1.4908,1.4942,1.4983,1.5047,1.5059,1.5085,1.5123,1.5126,1.5176,1.519,1.522,1.525,1.5246,1.5293,1.5308,1.531,1.5273,1.527,1.5267,1.5259,1.5282,0,0,0,0,0,1.4804,1.4837,1.4901,1.4925,1.4945,1.4998,1.502,1.505,1.5094,1.5111,1.5152,1.5193,1.5229,1.5251,1.5287,1.5315,1.5329,1.5323,1.532,1.5317,1.5318,1.5336,1.5334,1.5352,1.5352,1.5352,0,0,1.4788,1.4834,1.4851,1.4915,1.4951,1.4982,1.5012,1.5045,1.5069,1.5116,1.5152,1.5184,1.5233,1.5265,1.5281,1.529,1.5317,1.5317,1.5314,1.5317,1.5335,1.5333,1.5332,1.5351,1.5351,1.5351,0,0,1.4775,1.4813,1.4838,1.4872,1.4926,1.4962,1.4967,1.5028,1.5051,1.5089,1.5125,1.5154,1.5214,1.5248,1.5272,1.5273,1.5298,1.5283,1.5267,1.5283,1.5281,1.528,1.5281,1.528,1.5284,1.5284,1.5284,0,1.4748,1.4799,1.4846,1.4877,1.4904,1.495,1.4974,1.5005,1.5067,1.5084,1.5094,1.5171,1.5207,1.5247,1.5248,1.5266,1.5274,1.5276,1.5278,1.5278,1.5277,1.5278,1.5278,1.5282,1.5282,1.5282,1.5282,0,1.4763,1.4797,1.481,1.4871,1.4899,1.4926,1.4977,1.5,1.5027,1.5062,1.51,1.5144,1.5191,1.5202,1.5229,1.5247,1.5251,1.5269,1.5285,1.5273,1.5274,1.5275,1.5278,1.5279,1.528,1.528,0,0,1.4718,1.4805,1.4809,1.4837,1.49,1.4927,1.4956,1.5003,1.5021,1.5062,1.5088,1.5138,1.5155,1.5183,1.5214,1.5228,1.5226,1.5244,1.5246,1.5239,1.5248,1.5235,1.5234,1.5243,1.5243,1.5243,1.5244,0,1.4715,1.4771,1.4814,1.4853,1.4886,1.493,1.4955,1.4996,1.5028,1.506,1.5096,1.5131,1.5151,1.5168,1.5184,1.5222,1.5228,1.5223,1.5266,1.5267,1.5253,1.5235,1.5221,1.5219,1.5245,1.5245,1.5245,0,1.4718,1.4759,1.4801,1.4861,1.4876,1.4899,1.4945,1.4975,1.5021,1.5044,1.5076,1.5108,1.514,1.5153,1.5198,1.5194,1.5214,1.5235,1.5236,1.5242,1.5255,1.524,1.522,1.5219,1.5247,1.5247,1.5247,0,1.4681,1.4747,1.4781,1.4804,1.4874,1.4889,1.4919,1.4966,1.4991,1.5031,1.5048,1.5091,1.5114,1.5146,1.5188,1.5194,1.5228,1.5245,1.5248,1.5247,1.5253,1.5252,1.5236,1.5266,1.5266,1.5266,1.5266,0,1.4672,1.4696,1.4766,1.4787,1.4815,1.4864,1.4891,1.4924,1.4966,1.4993,1.5034,1.5058,1.5113,1.5144,1.5178,1.521,1.522,1.5239,1.5247,1.5235,1.5233,1.5249,1.525,1.5266,1.5266,1.5266,1.5266,0,1.4636,1.4683,1.4724,1.4788,1.4804,1.4822,1.4876,1.4898,1.4933,1.4968,1.4979,1.5034,1.5073,1.5119,1.5172,1.5195,1.5224,1.5236,1.5208,1.5213,1.5213,1.5212,1.5207,1.5208,1.5237,1.5237,1.5236,0,1.4627,1.4647,1.4713,1.4735,1.4765,1.4799,1.4826,1.4875,1.4901,1.4956,1.497,1.5013,1.5049,1.5109,1.5154,1.5195,1.5209,1.5204,1.5215,1.5202,1.5209,1.5207,1.5209,1.5201,1.52,1.52,1.5199,0,1.4606,1.4629,1.4666,1.4712,1.4742,1.478,1.4819,1.4835,1.4892,1.4919,1.496,1.4988,1.5043,1.5085,1.5132,1.5161,1.519,1.5196,1.5198,1.5186,1.5169,1.5178,1.52,1.5195,1.5196,1.5196,1.5196,1.5196,1.4583,1.4603,1.4653,1.4693,1.4729,1.4765,1.4788,1.4827,1.4863,1.4912,1.4939,1.4979,1.5026,1.5092,1.5121,1.5153,1.5163,1.5167,1.5168,1.5168,1.5164,1.5164,1.5162,1.5162,1.5162,1.5162,1.5162,0,1.4564,1.4599,1.4636,1.469,1.4722,1.4747,1.4792,1.4816,1.4852,1.4893,1.4929,1.4975,1.5016,1.5064,1.5107,1.5124,1.5138,1.5133,1.5132,1.5139,1.5153,1.5146,1.5121,1.5121,1.5121,1.5121,1.5121,1.5121,1.4558,1.4593,1.4622,1.4675,1.4709,1.475,1.4774,1.4807,1.484,1.4892,1.4926,1.4957,1.5001,1.5048,1.5086,1.51,1.5114,1.5105,1.5122,1.5134,1.5138,1.5141,1.5135,1.5108,1.5108,1.5105,1.5105,1.5105]},{"header":{"parameterUnit":"m.s-1","parameterCategory":1,"la1":30.2991,"la2":30.254,"lo1":-89.0895,"lo2":-89.0444,"dy":0.0017,"dx":0.0017,"nx":28,"ny":28,"refTime":"2023-08-28T09:00:00:Z","depth":0,"parameterNumber":3,"parameterNumberName":"V-component_of_WINDS"},"data":[0,0,0,0,0,0,0,0,0,0,0,0,0,0,0,0,0,0,0,0,0,0,0,0,0,0,0,0,0,0,0,0,0,0,0,0,0,0,0,0,0,0,0,0,0,0,0,0,0,0,0,0,0,0,0,0,0,0,2.2797,2.2799,0,2.2953,2.2954,2.2956,2.2921,2.2918,2.2915,2.2912,2.3072,2.3079,2.3086,0,0,0,0,0,0,0,0,0,0,0,0,0,2.2466,2.2473,2.2797,2.2799,2.2801,2.2952,2.2955,2.2957,2.2922,2.2918,2.2914,2.2911,2.307,2.3078,2.3086,0,0,0,0,0,0,0,0,0,0,0,0,0,2.2615,2.2475,2.2797,2.2802,2.2804,2.2952,2.2955,2.2957,2.2922,2.2918,2.2913,2.2909,2.3067,2.3077,2.3087,2.3241,0,0,2.3119,2.3124,0,0,0,0,0,0,0,0,2.2606,2.2627,2.2799,2.2802,2.2804,2.2913,2.2896,2.3052,2.2923,2.2877,2.2912,2.2907,2.3023,2.3036,2.3075,2.3248,2.3255,2.312,2.3127,2.3131,2.3134,0,0,0,0,0,0,0,2.2596,2.262,2.2859,2.2802,2.2805,2.2795,2.2811,2.2926,2.2973,2.2881,2.2879,2.2898,2.3023,2.3065,2.3079,2.3257,2.312,2.3129,2.3136,2.314,2.3559,2.3563,0,0,0,0,0,0,2.2584,2.2612,2.2854,2.2863,2.2692,2.2805,2.2823,2.2882,2.2971,2.2981,2.2901,2.2895,2.305,2.3067,2.3084,2.3267,2.3131,2.3141,2.3147,2.3554,2.356,2.3565,0,0,0,0,0,0,2.2577,2.2606,2.2847,2.2737,2.2767,2.2815,2.2882,2.2888,2.293,2.2987,2.2995,2.2936,2.3047,2.307,2.3201,2.3272,2.3146,2.3155,2.3548,2.3556,2.3563,2.3636,0,0,0,0,0,0,2.2568,2.2604,2.2664,2.2739,2.2773,2.2963,2.2887,2.2894,2.2948,2.2942,2.3022,2.303,2.3045,2.3185,2.3211,2.3285,2.3163,2.3542,2.3552,2.356,2.3628,2.3645,2.366,0,0,0,0,0,2.2556,2.2679,2.2667,2.2696,2.2849,2.2967,2.2987,2.3001,2.2954,2.3014,2.3049,2.3028,2.326,2.3199,2.3228,2.3306,2.3538,2.3549,2.356,2.362,2.3642,2.3659,0,0,0,0,0,0,2.2613,2.2689,2.2677,2.2828,2.2891,2.2961,2.3037,2.3024,2.3102,2.3093,2.3107,2.3125,2.3259,2.3295,2.3226,2.3456,2.3392,2.3409,2.3428,2.3449,2.3465,2.3454,2.3172,0,0,0,0,0,2.2642,2.2733,2.2794,2.2921,2.2954,2.299,2.3042,2.3047,2.3113,2.314,2.3186,2.3251,2.3337,2.3395,2.3479,2.3631,2.3647,2.3699,2.3715,2.3728,2.3743,2.3823,2.3846,2.3601,2.3601,2.3601,0,0,2.2706,2.2758,2.2815,2.2934,2.2984,2.3075,2.3013,2.3114,2.3181,2.3156,2.3282,2.3317,2.339,2.3532,2.3597,2.3567,2.3813,2.3741,2.3751,2.376,2.3837,2.386,2.3881,2.3608,2.3607,2.3606,0,0,2.2868,2.2917,2.3027,2.3077,2.3153,2.3175,2.3201,2.3272,2.3294,2.3421,2.3402,2.3482,2.3633,2.3685,2.3731,2.3907,2.3889,2.3933,2.4018,2.4097,2.4116,2.4133,2.4195,2.4217,2.3948,2.3948,2.3948,0,2.2937,2.3075,2.3086,2.3187,2.3239,2.3217,2.3328,2.3376,2.3475,2.351,2.3474,2.366,2.3708,2.386,2.3902,2.3941,2.397,2.3925,2.4112,2.413,2.4146,2.4205,2.4228,2.3953,2.3952,2.3952,2.3951,0,2.3155,2.3251,2.3331,2.3425,2.3485,2.3591,2.3616,2.3676,2.3674,2.3699,2.3826,2.3882,2.3975,2.4011,2.4012,2.4163,2.4141,2.4109,2.4045,2.4174,2.4229,2.4252,2.396,2.3958,2.3956,2.3955,0,0,2.3362,2.3457,2.3486,2.3527,2.3606,2.368,2.3782,2.3872,2.3922,2.3989,2.4075,2.42,2.4169,2.4221,2.4226,2.4295,2.4428,2.4254,2.4255,2.4284,2.4596,2.462,2.4647,2.4416,2.442,2.4423,2.459,0,2.353,2.3712,2.3722,2.3886,2.3973,2.3951,2.404,2.4097,2.4122,2.4199,2.4226,2.4315,2.4268,2.4298,2.4365,2.4398,2.4491,2.4386,2.4495,2.4499,2.4478,2.4676,2.4703,2.4858,2.4611,2.4615,2.4618,0,2.3753,2.3825,2.3997,2.406,2.4097,2.4177,2.4258,2.4332,2.4395,2.4408,2.4464,2.4458,2.4561,2.4491,2.4632,2.456,2.4605,2.4627,2.4633,2.4645,2.4567,2.4693,2.4907,2.4931,2.4652,2.4649,2.4647,0,2.3884,2.4025,2.4145,2.4181,2.4258,2.4314,2.4348,2.4407,2.4459,2.4529,2.4562,2.4644,2.4689,2.4751,2.4766,2.4715,2.4907,2.4839,2.492,2.492,2.4963,2.4961,2.5188,2.4991,2.499,2.499,2.4989,0,2.4072,2.4178,2.4205,2.428,2.4396,2.4405,2.4521,2.4551,2.4602,2.4681,2.4666,2.474,2.4755,2.4832,2.4844,2.4958,2.4978,2.4991,2.4993,2.4993,2.4992,2.5024,2.5014,2.4996,2.4995,2.4993,2.4992,0,2.4241,2.4263,2.4392,2.4453,2.447,2.4554,2.4605,2.4675,2.4696,2.4796,2.482,2.4854,2.4942,2.4963,2.5069,2.5077,2.5212,2.5203,2.5191,2.519,2.527,2.5262,2.5527,2.5561,2.5341,2.5343,2.5345,0,2.436,2.444,2.4508,2.4559,2.4596,2.4679,2.4731,2.4741,2.4796,2.4871,2.4931,2.5018,2.5088,2.523,2.5264,2.5344,2.5338,2.5425,2.535,2.5346,2.5339,2.5334,2.5341,2.544,2.5442,2.5444,2.5446,0,2.4568,2.4574,2.4649,2.4728,2.479,2.4853,2.4912,2.4955,2.4973,2.5034,2.5124,2.5178,2.5285,2.537,2.545,2.5484,2.5468,2.5468,2.5491,2.5492,2.5482,2.5488,2.523,2.5463,2.5461,2.546,2.5459,2.5458,2.4715,2.4785,2.4842,2.4926,2.4971,2.5026,2.5094,2.5123,2.5198,2.5285,2.5286,2.5383,2.544,2.5544,2.5583,2.5658,2.5631,2.5665,2.5674,2.5682,2.5689,2.5468,2.5673,2.5672,2.5672,2.5671,2.5671,0,2.4923,2.4957,2.5034,2.5117,2.5182,2.5158,2.5222,2.5278,2.5364,2.5418,2.5486,2.5587,2.5669,2.5707,2.5788,2.5841,2.5835,2.5861,2.5858,2.5866,2.5709,2.5681,2.5864,2.5864,2.5864,2.5864,2.5864,2.5864,2.5038,2.5154,2.5166,2.5302,2.5336,2.5431,2.5469,2.5519,2.5561,2.5675,2.5743,2.5766,2.5813,2.5896,2.5969,2.5978,2.6009,2.6039,2.6044,2.5897,2.5877,2.5859,2.5833,2.6045,2.6046,2.6195,2.6197,2.6198]}]]